Regional Weather Roundup
Issued by NWS Little Rock, AR

Home | Current Version | Previous Version | Text Only | Print | Product List | Glossary Off
Versions: 1 2 3 4 5 6 7 8 9 10 11 12 13 14 15 16 17 18 19 20 21 22 23 24 25 26 27 28 29 30 31 32 33 34 35 36 37 38 39 40 41 42 43 44 45 46 47 48 49 50

000
ASUS44 KLZK 011905
RWRLZK

WEATHER ROUNDUP FOR ARKANSAS
NATIONAL WEATHER SERVICE LITTLE ROCK AR
100 PM CST SUN MAR 01 2015

NOTE: "FAIR" INDICATES FEW OR NO CLOUDS BELOW 12,000 FEET WITH NO
SIGNIFICANT WEATHER AND/OR OBSTRUCTIONS TO VISIBILITY.

ARZ001-003-010-029-012000-
NORTHWEST ARKANSAS

CITY           SKY/WX    TMP DP  RH WIND       PRES   REMARKS
FAYETTEVILLE   CLOUDY    34  32  92 CALM      30.34F FOG
FORT SMITH     CLOUDY    35  32  88 W6        30.38F FOG     WCI  30
HARRISON       CLOUDY    32  31  96 W3        30.33F FOG
BENTONVILLE    CLOUDY    32  28  86 CALM      30.35F
ROGERS         CLOUDY    33  30  88 NW3       30.34F
SILOAM SPGS    CLOUDY    32  27  80 CALM      30.36F
HIGHFILL       CLOUDY    33  29  85 N5        30.34F WCI  29
SPRINGDALE     CLOUDY    34  30  86 NW7       30.36F FOG     WCI  28
$$

ARZ004-005-016-012000-
NORTH CENTRAL ARKANSAS

CITY           SKY/WX    TMP DP  RH WIND       PRES   REMARKS
BATESVILLE     CLOUDY    37  34  87 W5        30.36F
FLIPPIN        CLOUDY    36  28  75 CALM      30.35S
MTN HOME       CLOUDY    33  32  96 CALM      30.34F
$$

ARZ040-041-012000-
WEST CENTRAL ARKANSAS

CITY           SKY/WX    TMP DP  RH WIND       PRES   REMARKS
MENA           CLOUDY    39  37  93 N3        30.31F
MOUNT IDA      CLOUDY    39  36  89 CALM      30.31F FOG
$$

ARZ009-017-025-026-028-012000-
NORTHEAST ARKANSAS

CITY           SKY/WX    TMP DP  RH WIND       PRES   REMARKS
CORNING        MOCLDY    36  32  87 CALM      30.37F
JONESBORO      CLOUDY    35  32  88 N7        30.36F WCI  29
NEWPORT        CLOUDY    37  34  89 N3        30.38F
WALNUT RIDGE   CLOUDY    36  30  80 N3        30.37F
BLYTHEVILLE    CLOUDY    37  36  96 NW10      30.35F FOG
$$

ARZ022-023-033-042-044-012000-
CENTRAL ARKANSAS

CITY           SKY/WX    TMP DP  RH WIND       PRES   REMARKS
LITTLE ROCK    LGT RAIN  39  37  92 N3        30.36F FOG
N LITTLE ROCK  CLOUDY    38  38 100 N3        30.36F
JACKSONVILLE   MIX PCPN  39  37  93 N2        30.35F
SEARCY         LGT RAIN  39  37  92 NW5       30.38F FOG
HOT SPRINGS    LGT RAIN  40  38  93 NW3       30.34F FOG
RUSSELLVILLE   CLOUDY    39  35  86 CALM      30.35F FOG
CLINTON        CLOUDY    39  36  87 NW5       30.37F
$$

ARZ036-012000-
EAST ARKANSAS

CITY           SKY/WX    TMP DP  RH WIND       PRES   REMARKS
WEST MEMPHIS   LGT RAIN  41  41 100 CALM      30.33F FOG
$$

ARZ050-053-066-070-073-012000-
SOUTHWEST ARKANSAS

CITY           SKY/WX    TMP DP  RH WIND       PRES   REMARKS
ARKADELPHIA    CLOUDY    39  38  97 N3        30.35F
CAMDEN         LGT RAIN  37  36  93 MISG      30.34F VSB 3/4
TEXARKANA      LGT RAIN  39  39 100 VRB5      30.31F FOG
EL DORADO      FOG       37  36  96 N8        30.32F VSB 1
DE QUEEN       LGT RAIN  43  41  93 CALM      30.31F FOG
$$

ARZ056-057-069-012000-
SOUTHEAST ARKANSAS

CITY           SKY/WX    TMP DP  RH WIND       PRES   REMARKS
PINE BLUFF     CLOUDY    36  34  92 N3        30.35F FOG
STUTTGART      CLOUDY    37  36  93 N5        30.34F
MONTICELLO     CLOUDY    38  36  92 NE6       30.32F FOG

$$




USA.gov is the U.S. government's official web portal to all federal, state and local government web resources and services.